Wind_Speed
3 3 3 2 3 4 4 6 7 8 7 8 9 10 9 10 10 11 11 11 11 10 9 9 9 9 9 8 8 8 7 7 6 5 5 4 4 4 4 5 5 5 5
4 3 3 2 3 3 4 5 5 7 8 8 9 10 10 11 11 11 11 10 10 9 9 9 9 8 8 7 7 7 7 6 5 4 4 4 3 3 4 5 5 5 5
5 4 4 3 4 4 4 5 5 6 7 8 9 10 11 11 11 11 11 10 9 9 9 9 8 8 8 7 6 6 6 5 5 4 4 4 3 4 4 4 4 4 4
6 5 4 4 4 4 4 5 5 6 7 8 9 10 10 10 10 9 10 9 9 9 8 9 8 8 8 7 7 6 5 5 4 4 4 3 3 3 3 3 3 4 4
7 6 5 5 5 5 5 5 6 6 7 7 8 9 9 9 9 9 9 10 10 9 8 8 8 8 7 7 6 5 5 4 4 4 3 3 3 2 2 3 3 3 3
9 7 6 6 6 6 6 6 6 6 7 7 7 8 8 8 9 8 9 8 8 8 7 7 8 8 7 6 6 5 5 5 4 4 3 2 2 2 2 3 3 3 2
12 10 9 7 6 7 7 7 7 7 7 6 6 7 7 8 7 7 7 7 6 6 6 6 7 7 6 5 5 5 5 4 4 4 3 2 3 2 2 2 3 3 2
13 12 11 9 8 7 7 7 7 6 6 5 6 6 6 6 6 6 6 6 5 5 5 5 5 6 6 5 5 5 5 4 4 3 3 2 2 2 2 2 2 2 1
13 12 12 11 10 9 8 8 8 7 6 6 5 5 6 6 6 6 6 6 6 5 5 5 5 5 5 5 5 5 4 3 3 3 2 1 1 1 1 1 1 1 1
13 13 12 12 11 10 9 8 8 8 7 6 5 5 6 6 4 4 5 6 5 6 6 6 5 5 5 5 5 4 4 3 3 2 1 1 1 1 1 1 1 1 1
14 14 12 11 11 10 9 8 8 8 8 7 6 6 6 5 4 3 3 5 5 6 5 5 4 5 6 6 5 4 4 3 2 2 2 2 2 2 2 2 2 2 2
14 14 13 12 11 10 9 9 9 8 7 8 6 5 5 4 3 3 4 3 4 5 5 5 5 6 6 6 6 5 4 3 2 2 2 2 3 3 2 2 2 3 3
15 14 13 12 11 10 9 9 8 8 7 7 6 4 4 3 3 2 3 3 4 4 4 4 4 5 5 5 5 4 3 3 2 2 2 3 4 3 3 3 3 3 3
15 15 13 12 11 10 9 8 9 9 8 7 6 5 4 4 3 2 2 2 2 3 3 3 3 4 5 4 4 3 3 3 2 3 3 3 4 4 4 3 3 4 4
15 14 13 11 11 11 10 10 9 8 8 8 6 5 4 4 3 3 2 1 1 2 1 2 3 4 5 4 4 4 3 3 3 2 3 4 4 4 4 4 4 4 5
15 15 14 12 12 11 10 9 9 7 7 7 7 6 5 4 2 2 2 1 0 1 0 1 3 4 5 5 5 4 4 4 3 3 3 4 4 5 5 5 5 5 5
15 15 14 13 11 11 10 10 10 9 7 7 7 6 5 3 2 1 1 1 1 1 1 2 2 3 4 5 5 4 3 3 4 4 4 4 4 4 5 5 5 6 6
15 15 14 13 12 10 10 9 9 9 8 7 6 6 5 4 3 2 1 1 1 2 2 2 2 3 3 4 4 4 3 4 4 5 5 5 5 5 5 6 6 7 7
15 15 14 14 13 11 9 9 8 8 8 7 7 6 5 5 4 3 2 2 3 4 4 4 4 3 2 3 3 4 4 5 5 5 5 5 5 5 5 6 7 8 8
14 14 14 14 13 12 10 10 9 9 9 8 7 7 6 5 5 4 3 3 4 4 4 4 4 3 3 3 2 3 3 4 4 5 5 5 5 6 6 7 7 8 8
13 13 14 14 13 13 12 10 10 9 9 8 7 7 7 6 5 5 4 4 3 3 4 4 4 3 3 2 2 2 2 3 4 5 5 5 6 7 7 8 9 9 9
12 12 13 14 14 14 13 12 11 10 10 9 8 8 7 7 6 5 5 4 4 4 3 3 2 3 3 3 3 3 3 4 4 5 6 6 7 7 8 9 9 10 10
11 11 12 12 13 13 14 14 13 12 11 10 9 8 8 7 7 6 5 5 5 4 4 4 3 3 3 3 4 4 5 5 6 6 7 7 7 8 9 9 10 10 10
10 10 11 11 12 13 13 14 14 13 12 11 10 9 8 8 7 6 6 5 5 5 5 5 4 4 4 5 5 5 6 6 6 6 7 8 9 9 9 10 10 11 12
9 9 10 10 11 12 12 13 13 13 12 12 11 10 9 9 8 7 6 6 6 5 5 5 5 5 5 5 6 6 7 7 7 7 8 9 10 10 10 10 11 12 12
9 9 9 9 10 11 12 12 13 12 12 12 12 11 9 9 8 7 7 7 7 6 6 6 6 6 6 6 7 7 8 9 10 9 9 9 10 10 10 10 11 12 13
Wind_Direction
41 64 85 111 132 152 164 171 171 175 177 178 180 177 174 173 167 167 166 162 159 154 153 151 150 149 149 146 143 138 136 134 130 127 125 127 119 106 89 81 74 75 78
44 66 78 114 141 148 159 167 171 174 171 175 176 174 173 173 168 166 163 164 162 162 159 157 159 158 158 156 150 149 148 146 137 134 125 122 128 117 98 88 80 85 80
57 67 68 99 126 135 137 151 160 167 171 170 171 173 173 173 170 163 164 166 165 161 161 162 162 160 162 162 160 159 154 142 134 141 134 120 111 106 93 83 84 84 74
54 71 68 92 115 123 127 133 140 151 162 163 167 169 174 175 167 167 174 171 164 162 166 168 166 163 160 158 162 163 155 144 145 150 139 118 119 109 91 80 72 69 64
56 62 74 92 104 115 124 130 139 140 154 159 163 165 168 167 167 162 165 167 161 164 168 166 167 162 157 155 160 160 154 144 143 143 137 129 132 116 90 73 67 68 59
60 62 69 89 98 104 118 131 139 141 149 158 164 166 161 157 153 155 156 161 165 169 167 172 173 167 164 162 160 155 154 150 143 139 134 132 131 106 81 71 68 68 52
55 59 64 73 90 102 110 118 129 136 145 158 162 160 158 155 153 152 153 157 162 172 178 177 176 174 169 168 168 160 156 158 156 154 146 122 104 94 91 80 72 65 46
55 60 64 75 86 99 112 116 122 129 137 146 151 163 164 157 156 156 161 170 172 174 180 175 181 183 186 172 166 161 157 162 166 163 142 117 85 84 98 83 63 55 40
56 63 67 72 85 95 101 110 123 121 124 135 137 146 151 158 160 165 168 173 175 172 171 177 189 194 193 179 166 170 167 168 184 175 143 126 92 72 96 59 23 13 5
56 62 65 70 79 89 96 102 111 108 111 122 129 135 139 144 149 164 177 173 173 177 175 177 186 192 185 181 180 181 180 182 205 203 201 211 201 294 298 324 333 326 342
54 55 58 66 68 75 84 93 99 100 103 113 124 131 136 134 133 139 159 165 175 179 181 188 190 186 190 191 190 189 195 204 227 234 235 239 245 274 289 290 297 301 296
51 51 54 60 64 70 76 81 85 88 95 107 115 121 129 140 131 129 142 146 169 183 187 190 190 187 195 195 195 204 211 227 234 252 242 246 260 273 278 277 287 288 282
49 49 52 54 58 65 69 73 79 80 82 93 99 103 113 124 125 134 143 143 151 174 184 188 192 202 203 204 213 213 220 248 256 265 256 259 267 273 274 273 280 288 284
48 48 50 51 56 62 61 66 69 66 65 70 82 88 99 102 105 126 133 148 168 186 194 212 214 224 214 219 226 226 235 257 254 260 273 271 274 271 263 269 284 290 281
47 49 51 53 57 58 55 55 54 53 55 58 61 75 86 88 91 102 121 121 170 183 198 220 225 238 234 231 230 232 241 252 257 263 275 278 280 279 272 272 282 287 277
44 44 48 55 57 56 53 52 50 50 53 51 50 54 62 70 74 56 73 106 159 256 231 233 242 244 247 244 243 244 244 251 263 274 291 293 289 287 283 280 281 286 277
43 42 43 46 49 49 49 51 50 51 54 52 49 44 47 40 24 38 21 12 0 311 280 299 273 257 253 253 258 254 257 261 271 279 286 287 288 288 286 285 284 286 278
40 40 40 39 41 43 46 47 45 46 46 45 38 32 30 20 19 33 333 288 314 333 315 309 289 289 268 257 257 265 271 269 276 278 281 283 283 284 283 285 286 285 280
37 37 37 36 36 38 39 38 38 36 37 39 34 29 26 24 24 15 14 345 329 330 326 314 307 309 287 281 267 261 266 273 278 280 285 282 278 279 281 283 286 288 283
34 34 33 33 33 34 34 32 35 34 34 33 34 27 22 26 24 18 13 2 352 337 333 334 333 338 327 318 297 273 277 281 281 284 290 288 281 281 284 288 287 288 289
31 31 31 31 31 30 30 29 28 30 26 27 27 25 28 27 21 20 13 6 353 344 337 337 338 342 345 338 317 307 307 295 297 298 293 297 291 287 288 291 288 287 288
28 29 30 29 30 31 30 30 31 29 27 28 26 23 22 20 21 19 17 11 7 11 8 3 349 339 338 337 333 327 322 310 304 303 296 298 298 295 296 294 291 290 291
23 24 26 28 29 30 30 29 27 26 25 24 23 21 17 13 9 10 17 13 8 4 358 351 341 337 332 329 329 319 310 303 303 298 299 301 300 296 296 296 293 291 292
17 20 23 23 24 25 25 24 23 23 22 19 16 14 11 8 7 9 11 7 2 355 347 343 334 326 319 317 314 313 310 307 304 301 299 297 295 295 295 296 292 292 292
13 15 18 17 15 15 15 17 17 18 18 16 14 9 6 7 5 3 3 1 354 350 340 333 327 315 311 311 314 313 312 313 311 302 301 300 298 297 295 293 293 293 292
5 6 9 10 7 7 7 8 11 12 11 9 9 6 2 0 357 356 354 354 351 344 339 336 330 322 312 309 310 314 315 315 314 308 302 301 298 296 296 294 294 295 293
Height
5859 5858 5858 5858 5858 5859 5860 5861 5862 5863 5864 5865 5866 5868 5869 5870 5872 5873 5874 5875 5877 5878 5879 5881 5882 5883 5884 5885 5885 5886 5887 5888 5889 5890 5890 5891 5892 5892 5893 5893 5893 5893 5893
5860 5859 5859 5859 5859 5860 5860 5861 5862 5863 5864 5865 5867 5868 5870 5871 5872 5874 5875 5877 5878 5879 5880 5881 5883 5884 5885 5886 5886 5887 5888 5889 5890 5890 5891 5892 5892 5893 5893 5894 5894 5894 5894
5861 5860 5860 5860 5860 5861 5861 5862 5863 5864 5865 5866 5867 5868 5870 5872 5873 5875 5876 5877 5879 5880 5881 5882 5883 5885 5886 5887 5887 5888 5889 5890 5891 5891 5892 5893 5893 5893 5894 5894 5894 5895 5895
5862 5861 5861 5861 5861 5861 5862 5863 5864 5864 5866 5867 5868 5869 5871 5872 5874 5875 5877 5878 5879 5880 5882 5883 5884 5885 5886 5887 5888 5889 5890 5890 5891 5892 5893 5893 5894 5894 5894 5895 5895 5895 5896
5863 5862 5861 5861 5862 5863 5863 5864 5865 5866 5867 5868 5869 5870 5872 5873 5874 5876 5877 5879 5880 5881 5883 5884 5885 5886 5887 5888 5889 5889 5890 5891 5891 5892 5893 5894 5894 5895 5895 5895 5895 5896 5896
5864 5863 5862 5862 5863 5864 5865 5865 5866 5867 5868 5869 5870 5871 5872 5874 5875 5877 5878 5880 5881 5882 5883 5885 5885 5886 5888 5889 5889 5890 5890 5891 5892 5893 5894 5894 5895 5895 5895 5896 5896 5896 5896
5865 5864 5863 5863 5864 5865 5866 5867 5868 5869 5870 5871 5872 5872 5873 5875 5876 5878 5879 5881 5882 5883 5884 5885 5886 5887 5888 5889 5890 5890 5891 5891 5892 5893 5894 5895 5895 5895 5896 5896 5896 5897 5897
5868 5867 5865 5865 5865 5866 5868 5868 5869 5870 5871 5872 5873 5873 5874 5876 5877 5878 5880 5881 5882 5883 5884 5885 5886 5887 5888 5889 5890 5891 5892 5892 5893 5894 5894 5895 5895 5896 5896 5896 5897 5897 5897
5872 5870 5868 5868 5868 5869 5869 5870 5870 5871 5872 5873 5873 5874 5875 5877 5878 5879 5880 5881 5882 5883 5884 5885 5886 5887 5888 5889 5890 5891 5892 5892 5893 5894 5895 5895 5895 5896 5896 5897 5897 5897 5897
5874 5873 5871 5871 5871 5871 5872 5872 5872 5873 5873 5874 5875 5875 5877 5878 5879 5880 5881 5881 5882 5883 5884 5885 5886 5887 5888 5889 5890 5891 5892 5893 5893 5894 5895 5895 5895 5896 5896 5897 5897 5897 5897
5877 5876 5875 5874 5874 5874 5874 5874 5874 5874 5874 5875 5876 5877 5878 5879 5880 5881 5881 5882 5883 5883 5884 5885 5886 5886 5888 5889 5890 5891 5892 5892 5893 5894 5894 5895 5895 5896 5896 5896 5897 5897 5897
5880 5879 5878 5877 5877 5876 5876 5876 5876 5876 5876 5877 5878 5878 5879 5880 5881 5882 5882 5883 5883 5883 5884 5885 5886 5886 5887 5889 5890 5890 5891 5892 5893 5893 5894 5894 5895 5895 5895 5896 5896 5897 5897
5883 5882 5881 5880 5879 5879 5879 5878 5878 5878 5878 5878 5879 5880 5880 5881 5882 5882 5883 5883 5884 5884 5884 5885 5886 5887 5888 5889 5890 5890 5891 5892 5893 5893 5894 5894 5894 5894 5895 5895 5895 5896 5896
5886 5884 5883 5882 5882 5881 5881 5880 5880 5880 5880 5880 5880 5881 5881 5882 5882 5883 5884 5884 5884 5885 5885 5885 5886 5887 5888 5889 5890 5890 5891 5891 5892 5893 5893 5894 5894 5894 5894 5894 5894 5895 5895
5889 5887 5886 5885 5884 5884 5883 5883 5882 5882 5882 5882 5882 5882 5882 5883 5883 5883 5883 5884 5884 5885 5885 5886 5886 5887 5888 5888 5889 5890 5890 5891 5891 5892 5892 5893 5893 5893 5893 5893 5894 5894 5894
5892 5890 5889 5887 5887 5886 5885 5885 5884 5884 5884 5883 5883 5883 5883 5883 5883 5883 5884 5884 5884 5884 5885 5885 5886 5886 5887 5888 5889 5889 5890 5890 5891 5891 5892 5892 5892 5892 5892 5892 5892 5892 5892
5895 5893 5892 5890 5890 5889 5888 5887 5886 5886 5885 5885 5884 5884 5884 5884 5883 5884 5884 5885 5885 5885 5884 5884 5885 5885 5886 5887 5888 5888 5889 5889 5890 5890 5891 5891 5891 5891 5891 5891 5891 5891 5891
5897 5896 5895 5893 5892 5891 5890 5889 5889 5888 5887 5886 5886 5885 5885 5885 5884 5884 5884 5885 5885 5885 5884 5884 5885 5885 5885 5886 5887 5887 5888 5888 5889 5889 5889 5889 5889 5890 5889 5889 5889 5889 5889
5900 5898 5897 5896 5894 5893 5892 5891 5890 5889 5888 5888 5887 5886 5886 5885 5885 5884 5884 5885 5885 5885 5885 5885 5884 5885 5885 5885 5886 5886 5887 5887 5888 5888 5888 5888 5888 5888 5888 5888 5888 5888 5888
5902 5901 5899 5898 5897 5895 5894 5893 5892 5891 5890 5889 5888 5888 5887 5886 5886 5885 5885 5885 5885 5885 5885 5885 5885 5885 5884 5885 5885 5886 5886 5887 5887 5887 5887 5887 5887 5887 5886 5886 5886 5886 5886
5904 5903 5902 5900 5899 5897 5896 5895 5894 5893 5892 5891 5889 5889 5888 5887 5886 5886 5885 5885 5885 5885 5885 5884 5884 5884 5884 5885 5885 5885 5885 5885 5885 5885 5885 5885 5885 5885 5885 5885 5885 5885 5885
5907 5905 5904 5902 5901 5899 5898 5896 5895 5894 5893 5892 5891 5890 5889 5888 5887 5886 5886 5886 5885 5885 5885 5885 5884 5884 5884 5884 5885 5885 5885 5885 5884 5884 5884 5883 5883 5883 5883 5883 5883 5883 5883
5908 5907 5906 5905 5903 5902 5900 5898 5897 5895 5894 5893 5892 5891 5890 5889 5888 5887 5886 5886 5885 5885 5885 5885 5884 5884 5884 5884 5884 5884 5884 5884 5883 5883 5882 5882 5882 5881 5881 5881 5881 5880 5880
5910 5908 5907 5906 5905 5903 5902 5900 5899 5897 5896 5894 5893 5892 5891 5890 5888 5888 5887 5886 5886 5885 5885 5884 5884 5884 5884 5884 5884 5883 5883 5882 5882 5881 5881 5880 5880 5879 5879 5878 5878 5878 5878
5911 5909 5908 5907 5906 5905 5903 5902 5900 5898 5897 5896 5894 5893 5892 5891 5889 5888 5887 5887 5886 5885 5885 5884 5884 5883 5883 5883 5883 5882 5881 5881 5880 5879 5879 5879 5878 5877 5876 5876 5876 5875 5875
5912 5910 5909 5908 5907 5906 5904 5903 5901 5900 5898 5896 5895 5893 5892 5891 5890 5889 5888 5887 5886 5885 5885 5884 5884 5883 5883 5882 5882 5881 5880 5879 5879 5877 5877 5876 5875 5875 5874 5873 5873 5872 5872